星链-5203 (STARLINK-5203 )

导读 | 豆包AI

STARLINK-5203是美国太空探索技术公司SpaceX星链星座的第五代卫星,于2022年10月20日发射入轨。星链项目旨在构建覆盖全球的低轨卫星互联网星座,该卫星承担为全球偏远地区、海洋空域等提供高速低时延网络接入服务的任务,补充完善了星链星座的全球覆盖能力与服务容量。

基本信息
目录编号:
54104
目录名称:
STARLINK-5203
国际标识:
2022-136BF
轨道中心:
EARTH
卫星名称:
星链-5203
卫星全名:
星链-5203 (STARLINK-5203 )
卫星状态:
在轨 (已飞行1288 天)
发射日期:
2022-10-20 UTC
国别 :
美国 (US)
星等 :
--
轨道信息
数据来源 国际轨道数据 AOE轨道数据
星历时间 2026-04-30T10:35:08+0800
12小时前
查看轨道信息
2026-04-29T21:00:00+0800
1天前
查看轨道信息
半长轴 6917.896km 6917.88km
偏心率 0.0001441 0.0002281
轨道倾角 53.217° 53.210°
近地点辐角 88.960° 119.414°
升交点赤经 67.851° 70.378°
平近点角 271.156° 44.308°
近地点 538.762km 538.165km
远地点 540.756km 541.321km
周期 95.438分钟 95.438分钟
每日圈数 15.08835 15.088403
详细信息
固有亮度:
5
最大亮度:
2.5
卫星平台:
Starlink v1.5
覆盖范围:
全球
运营商:
太空探索技术公司
运营商所在国:
美国
制造商(研发单位):
太空探索技术公司
制造商所在国:
美国
使用方式:
暂无
卫星简介
星链(Starlink)计划是由太空探索技术公司(SpaceX)提出的一个巨型低轨卫星互联网星座项目,计划在2019年至2024年间在太空搭建由约1.2万颗卫星组成的“星链”网络,其中1584颗将部署在地球上空550千米处的近地轨道,并从2020年开始工作。该卫星仍在工作。
2D轨道图
3D轨道图
轨道高度分析图
轨道倾角分析图
轨道综合分析图
查看轨道综合分析图